Weather History for Palestine, TX

Change the Weather History Date:

Friday, September 13, 2013

  Actual Average (KTYR) Record (KTYR)
Temperature  
Mean Temperature 90 °F 77 °F  
Max Temperature 97 °F 87 °F 106 °F (2011)
Min Temperature 82 °F 67 °F 45 °F (1960)
Degree Days  
Heating Degree Days 0 0  
Month to date heating degree days 0  
Since 1 July heating degree days 0  
Cooling Degree Days 24 12  
Month to date cooling degree days 181  
Year to date cooling degree days 2103  
Growing Degree Days 40 (Base 50)    
Moisture  
Dew Point 64 °F    
Average Humidity 43    
Maximum Humidity 59    
Minimum Humidity 30    
Precipitation  
Precipitation 0.00 in 0.12 in 9.07 in (1913)
Month to date precipitation 1.57  
Year to date precipitation 30.83  
Snow  
Snow 0.00 in - - ()
Month to date snowfall  
Since 1 July snowfall  
Since 1 September snowfall  
Snow Depth -    
Sea Level Pressure  
Sea Level Pressure 29.90 in    
Wind  
Wind Speed 6 mph (NE)    
Max Wind Speed 16 mph    
Max Gust Speed 25 mph    
Visibility 10 miles    
Events      
T = Trace of Precipitation, MM = Missing Value Source: NWS Daily Summary

Daily Weather History Graph

Daily Weather History Graph

Search for Another Location

Airport:

Trip Planner

Search our weather history database for the weather conditions in past years. The results will help you decide how hot, cold, wet, or windy it might be!

Date:

Astronomy

Sep. 13, 2013 Rise Set
Actual Time 7:05 AM CDT 7:30 PM CDT
Civil Twilight 6:41 AM CDT 7:55 PM CDT
Nautical Twilight 6:12 AM CDT 8:23 PM CDT
Astronomical Twilight 5:43 AM CDT 8:53 PM CDT
Moon 3:06 PM CDT (9/13) 12:52 AM CDT (9/13)
Length of Visible Light 13h 14m
Length of Day
12h 25m
First Quarter, 61% of the Moon is Illuminated
Sep 13
First Quarter
Sep 19
Full
Sep 26
Last Quarter
Oct 4
New
Oct 11
First Quarter

Hourly Weather History & Observations

Time (CDT) Temp. Heat Index Dew Point Humidity Pressure Visibility Wind Dir Wind Speed Gust Speed Precip Events Conditions
12:15 AM - - - N/A% - - North - - N/A   Unknown
12:35 AM - - - N/A% - - North - - N/A   Unknown
12:55 AM - - - N/A% - - North - - N/A   Unknown
1:15 AM - - - N/A% - - North - - N/A   Unknown
1:35 AM - - - N/A% - - North - - N/A   Unknown
1:55 AM - - - N/A% - - North - - N/A   Unknown
2:15 AM - - - N/A% - - North - - N/A   Unknown
2:35 AM - - - N/A% - - North - - N/A   Unknown
2:55 AM - - - N/A% - - North - - N/A   Unknown
3:15 AM - - - N/A% - - North - - N/A   Unknown
3:35 AM - - - N/A% - - North - - N/A   Unknown
3:55 AM - - - N/A% - - North - - N/A   Unknown
4:15 AM - - - N/A% - - North - - N/A   Unknown
4:35 AM - - - N/A% - - North - - N/A   Unknown
4:55 AM - - - N/A% - - North - - N/A   Unknown
5:15 AM - - - N/A% - - North - - N/A   Unknown
5:35 AM - - - N/A% - - North - - N/A   Unknown
5:55 AM - - - N/A% - - North - - N/A   Unknown
6:15 AM - - - N/A% - - North - - N/A   Unknown
6:35 AM - - - N/A% - - North - - N/A   Unknown
6:55 AM - - - N/A% - - North - - N/A   Unknown
7:15 AM - - - N/A% - - North - - N/A   Unknown
7:35 AM - - - N/A% - - North - - N/A   Unknown
7:55 AM - - - N/A% - - North - - N/A   Unknown
8:15 AM - - - N/A% - - North - - N/A   Unknown
8:35 AM - - - N/A% - - North - - N/A   Unknown
8:55 AM - - - N/A% - - North - - N/A   Unknown
9:15 AM - - - N/A% - - North - - N/A   Unknown
9:35 AM - - - N/A% - - North - - N/A   Unknown
9:55 AM - - - N/A% - - North - - N/A   Unknown
10:15 AM - - - N/A% - - North - - N/A   Unknown
10:35 AM - - - N/A% - - North - - N/A   Unknown
10:55 AM 86.2 °F 88.2 °F 65.5 °F 50% 29.98 in 10.0 mi WNW 5.8 mph - N/A   Unknown
11:15 AM 87.8 °F 89.4 °F 64.4 °F 46% 29.98 in 10.0 mi NW 9.2 mph - N/A   Clear
11:35 AM 89.2 °F 90.2 °F 63.3 °F 42% 29.98 in 10.0 mi NNE 4.6 mph - N/A   Clear
11:55 AM 89.8 °F 90.7 °F 63.0 °F 41% 29.98 in 10.0 mi NW 4.6 mph - N/A   Clear
12:15 PM 91.4 °F 92.1 °F 62.6 °F 38% 29.97 in 10.0 mi WNW 4.6 mph - N/A   Clear
12:35 PM 91.8 °F 92.2 °F 61.7 °F 37% 29.96 in 10.0 mi Calm Calm - N/A   Clear
12:55 PM 92.8 °F 93.1 °F 61.7 °F 35% 29.95 in 10.0 mi NW 6.9 mph - N/A   Clear
1:15 PM 93.2 °F 93.7 °F 61.9 °F 35% 29.94 in 10.0 mi ENE 4.6 mph - N/A   Clear
1:35 PM 94.5 °F 95.2 °F 61.9 °F 34% 29.93 in 10.0 mi ENE 8.1 mph - N/A   Clear
1:55 PM 94.6 °F 95.1 °F 61.0 °F 33% 29.92 in 10.0 mi North 4.6 mph - N/A   Clear
2:15 PM 94.5 °F 94.8 °F 61.0 °F 33% 29.91 in 10.0 mi SE 4.6 mph - N/A   Clear
2:35 PM 95.0 °F 95.2 °F 60.4 °F 32% 29.90 in 10.0 mi NNW 5.8 mph - N/A   Scattered Clouds
2:55 PM 94.1 °F 94.2 °F 60.6 °F 33% 29.89 in 10.0 mi NE 6.9 mph - N/A   Scattered Clouds
3:15 PM 95.4 °F 95.7 °F 60.8 °F 32% 29.88 in 10.0 mi East 4.6 mph - N/A   Scattered Clouds
3:35 PM 95.5 °F 96.0 °F 61.2 °F 32% 29.87 in 10.0 mi NNW 4.6 mph - N/A   Scattered Clouds
3:55 PM 96.4 °F 97.0 °F 61.5 °F 31% 29.86 in 10.0 mi NNW 3.5 mph - N/A   Scattered Clouds
4:15 PM 96.4 °F 97.0 °F 61.5 °F 31% 29.85 in 10.0 mi NNE 4.6 mph - N/A   Clear
4:35 PM 97.0 °F 97.4 °F 61.0 °F 30% 29.85 in 10.0 mi Calm Calm - N/A   Clear
4:55 PM 96.1 °F 96.9 °F 61.7 °F 32% 29.84 in 10.0 mi NNE 6.9 mph - N/A   Clear
5:15 PM 93.0 °F 95.5 °F 65.5 °F 40% 29.85 in 10.0 mi NNE 16.1 mph 25.3 mph N/A   Clear
5:35 PM 91.8 °F 93.8 °F 64.9 °F 41% 29.85 in 10.0 mi NE 11.5 mph 17.3 mph N/A   Clear
5:55 PM 90.9 °F 93.5 °F 66.2 °F 44% 29.85 in 10.0 mi ENE 12.7 mph - N/A   Clear
6:15 PM 90.9 °F 93.5 °F 66.0 °F 44% 29.85 in 10.0 mi NE 6.9 mph - N/A   Clear
6:35 PM 90.7 °F 92.8 °F 65.3 °F 43% 29.85 in 10.0 mi NNE 11.5 mph - N/A   Clear
6:55 PM 90.1 °F 92.0 °F 64.6 °F 43% 29.85 in 10.0 mi NE 8.1 mph - N/A   Clear
7:15 PM 88.7 °F 90.8 °F 65.5 °F 46% 29.85 in 10.0 mi ENE 6.9 mph - N/A   Clear
7:35 PM 86.9 °F 89.3 °F 66.4 °F 50% 29.85 in 10.0 mi ENE 8.1 mph - N/A   Clear
7:55 PM 86.0 °F 88.8 °F 67.1 °F 53% 29.86 in 10.0 mi ENE 6.9 mph - N/A   Clear
8:15 PM 86.0 °F 88.5 °F 66.7 °F 52% 29.86 in 10.0 mi NE 5.8 mph - N/A   Clear
8:35 PM 85.6 °F 87.9 °F 66.4 °F 52% 29.87 in 10.0 mi ENE 5.8 mph - N/A   Scattered Clouds
8:55 PM 85.3 °F 87.6 °F 66.6 °F 53% 29.88 in 10.0 mi ENE 5.8 mph - N/A   Scattered Clouds
9:15 PM 85.1 °F 87.7 °F 66.7 °F 54% 29.88 in 10.0 mi ENE 6.9 mph - N/A   Scattered Clouds
9:35 PM 84.6 °F 86.8 °F 66.4 °F 54% 29.89 in 10.0 mi NE 6.9 mph - N/A   Scattered Clouds
9:55 PM 84.7 °F 86.8 °F 65.8 °F 53% 29.89 in 10.0 mi ENE 5.8 mph - N/A   Mostly Cloudy
10:15 PM 85.1 °F 87.1 °F 65.7 °F 52% 29.89 in 10.0 mi ENE 8.1 mph - N/A   Overcast
10:35 PM 84.7 °F 86.8 °F 65.7 °F 53% 29.90 in 10.0 mi ENE 8.1 mph - N/A   Scattered Clouds
10:55 PM 84.2 °F 86.1 °F 65.3 °F 53% 29.90 in 10.0 mi NE 9.2 mph 16.1 mph N/A   Clear
11:15 PM 83.5 °F 85.5 °F 65.8 °F 55% 29.91 in 10.0 mi ENE 8.1 mph - N/A   Clear
11:35 PM 82.8 °F 84.9 °F 66.2 °F 57% 29.91 in 10.0 mi ENE 9.2 mph - N/A   Clear
11:55 PM 82.2 °F 84.6 °F 66.6 °F 59% 29.92 in 10.0 mi ENE 8.1 mph - N/A   Clear